World > North America > United States > New York
Hourly regional weather for Tioga Center, New YorkTioga Center, New York Regional Hourly Weather

Tioga Center, New York Regional Weather

regional weather tioga center, nyHOURLY REGIONAL WEATHER FOR TIOGA CENTER, NY
Lat: 42.07N, Lon: 76.35W 
Web Search
Tioga Center Weather Warning NWS WEATHER ALERT FOR THE TIOGA CENTER, NY AREA - WIND ADVISORY Issued: 347 AM EST Mon Dec 6 2021 Tioga Center Weather Warning  

Pass this page to a friend. Tell them to point their camera at the QR Code near the bottom of this page.

Feedback


°F Click to change Tioga Center hourly weather to Imperial units.Click to change Tioga Center hourly weather to Metric units. °C
Tioga Center Weather Map
UTC Time: 12/6/2021, 15:42
Your Time:

Tioga Center, NY Regional Weather

Expires:202112061600;;002680
ASUS41 KBGM 061510
RWRBGM

REGIONAL WEATHER ROUNDUP
NATIONAL WEATHER SERVICE BINGHAMTON NY
1000 AM EST MON DEC 06 2021

Note: "fair" indicates few or no clouds below 12,000 feet with no
significant weather and/or obstructions to visibility.

* = Station(s) that does not report precipitation, such as rain, 
snow, etc, also no thunder or fog.


NYZ009-015>018-022>025-036-037-044>046-055>057-062-061600
...Central New York...
  
CITY           SKY/WX    TMP DP  RH WIND       PRES   REMARKS
Binghamton     CLOUDY    46  43  89 S12G23    29.68F                  
Cortland       CLOUDY    46  43  87 SW10      29.64F                  
Dansville      CLOUDY    50  44  80 SE12      29.56F                  
Elmira         CLOUDY    52  44  74 SW6       29.63F                  
Endicott       RAIN      48  45  87 SW8       29.68F                  
Ithaca         LGT RAIN  48  44  86 S15       29.62F                  
Hamilton       CLOUDY    46  43  87 S10G16    29.66F                  
Monticello     NOT AVBL                                               
Norwich        CLOUDY    46  45  93 S17G23    29.70F                  
Oneonta        PTSUNNY   48  45  87 S8        29.70F                  
Penn Yan       PTSUNNY   48  41  76 SW10G22   29.58F                  
Rome           CLOUDY    51  46  83 SE9       29.65F                  
Seneca Falls   CLOUDY    48  43  81 S23       29.58F                  
Sidney         MOSUNNY   48  43  81 S6        29.70F                  
Skaneateles    CLOUDY    50  48  93 S10G23    29.57F                  
Syracuse       LGT RAIN  53  48  83 S15G30    29.59F                  
$$
 

SKY/WX - Weather  TMP - Temperature  DP - Dew Point  RH - Relative Humidity
WIND - Wind Direction/Speed PRES - Barometric Pressure VSB - Visibility
WCI - Wind Chill Index E13G22 Wind - East Wind 13 mph/Gusts of 22 mph